Time,TemperatureF,DewpointF,PressureIn,WindDirection,WindDirectionDegrees,WindSpeedMPH,WindSpeedGustMPH,Humidity,HourlyPrecipIn,Conditions,Clouds,dailyrainin,SolarRadiationWatts/m^2,SoftwareType,DateUTC
2013-08-14 00:01:00,72.0,40.0,-100.00,SE,138,0.0,3.0,31,0.00,,,0.00,0.000000,,2013-08-14 07:01:00,
2013-08-14 00:52:00,71.0,43.0,-100.00,SE,145,0.0,3.0,36,0.00,,,0.00,0.000000,,2013-08-14 07:52:00,
2013-08-14 01:01:00,71.0,43.0,-100.00,SE,145,0.0,3.0,36,0.00,,,0.00,0.000000,,2013-08-14 08:01:00,
2013-08-14 01:11:00,71.0,43.0,-100.00,SE,145,0.0,3.0,36,0.00,,,0.00,0.000000,,2013-08-14 08:11:00,
2013-08-14 01:52:00,69.0,42.0,-100.00,SE,144,0.0,3.0,38,0.00,,,0.00,0.000000,,2013-08-14 08:52:00,
2013-08-14 02:02:00,69.0,42.0,-100.00,SE,144,0.0,3.0,38,0.00,,,0.00,0.000000,,2013-08-14 09:02:00,
2013-08-14 02:21:00,69.0,42.0,-100.00,SE,144,0.0,3.0,38,0.00,,,0.00,0.000000,,2013-08-14 09:21:00,
2013-08-14 02:53:00,69.0,45.0,-100.00,SE,133,0.0,2.0,42,0.00,,,0.00,0.000000,,2013-08-14 09:53:00,
2013-08-14 03:03:00,69.0,45.0,-100.00,SE,133,0.0,2.0,42,0.00,,,0.00,0.000000,,2013-08-14 10:03:00,
2013-08-14 03:11:00,69.0,45.0,-100.00,SE,133,0.0,2.0,42,0.00,,,0.00,0.000000,,2013-08-14 10:11:00,
2013-08-14 03:22:00,69.0,45.0,-100.00,SE,133,0.0,2.0,42,0.00,,,0.00,0.000000,,2013-08-14 10:22:00,
2013-08-14 03:52:00,69.0,46.0,-100.00,SE,143,0.0,4.0,43,0.00,,,0.00,0.000000,,2013-08-14 10:52:00,
2013-08-14 04:02:00,69.0,46.0,-100.00,SE,143,0.0,4.0,43,0.00,,,0.00,0.000000,,2013-08-14 11:02:00,
2013-08-14 04:11:00,69.0,46.0,-100.00,SE,143,0.0,4.0,43,0.00,,,0.00,0.000000,,2013-08-14 11:11:00,
2013-08-14 04:21:00,69.0,46.0,-100.00,SE,143,0.0,4.0,43,0.00,,,0.00,0.000000,,2013-08-14 11:21:00,
2013-08-14 04:52:00,66.0,45.0,-100.00,SE,141,0.0,4.0,46,0.00,,,0.00,0.000000,,2013-08-14 11:52:00,
2013-08-14 05:01:00,66.0,45.0,-100.00,SE,141,0.0,4.0,46,0.00,,,0.00,0.000000,,2013-08-14 12:01:00,
2013-08-14 05:11:00,66.0,45.0,-100.00,SE,141,0.0,4.0,46,0.00,,,0.00,0.000000,,2013-08-14 12:11:00,
2013-08-14 05:21:00,66.0,45.0,-100.00,SE,141,0.0,4.0,46,0.00,,,0.00,0.000000,,2013-08-14 12:21:00,
2013-08-14 05:52:00,67.0,43.0,-100.00,SE,130,0.0,3.0,42,0.00,,,0.00,0.000000,,2013-08-14 12:52:00,
2013-08-14 06:02:00,67.0,43.0,-100.00,SE,130,0.0,3.0,42,0.00,,,0.00,0.000000,,2013-08-14 13:02:00,
2013-08-14 06:11:00,67.0,43.0,-100.00,SE,130,0.0,3.0,42,0.00,,,0.00,0.000000,,2013-08-14 13:11:00,
2013-08-14 06:21:00,67.0,43.0,-100.00,SE,130,0.0,3.0,42,0.00,,,0.00,0.000000,,2013-08-14 13:21:00,
2013-08-14 06:52:00,64.0,42.0,-100.00,SE,129,0.0,3.0,44,0.00,,,0.00,0.000000,,2013-08-14 13:52:00,
2013-08-14 07:01:00,64.0,42.0,-100.00,SE,129,0.0,3.0,44,0.00,,,0.00,0.000000,,2013-08-14 14:01:00,
2013-08-14 07:11:00,64.0,42.0,-100.00,SE,129,0.0,3.0,44,0.00,,,0.00,0.000000,,2013-08-14 14:11:00,
2013-08-14 07:21:00,64.0,42.0,-100.00,SE,129,0.0,3.0,44,0.00,,,0.00,0.000000,,2013-08-14 14:21:00,
2013-08-14 07:52:00,63.0,41.0,-100.00,ESE,107,0.0,3.0,45,0.00,,,0.00,11.000000,,2013-08-14 14:52:00,
2013-08-14 08:02:00,63.0,41.0,-100.00,ESE,107,0.0,3.0,45,0.00,,,0.00,11.000000,,2013-08-14 15:02:00,
2013-08-14 08:57:00,74.0,42.0,-100.00,NNW,348,0.0,2.0,32,0.00,,,0.00,208.000000,,2013-08-14 15:57:00,
2013-08-14 09:04:00,74.0,42.0,-100.00,NNW,348,0.0,2.0,32,0.00,,,0.00,208.000000,,2013-08-14 16:04:00,
2013-08-14 09:13:00,74.0,42.0,-100.00,NNW,348,0.0,2.0,32,0.00,,,0.00,208.000000,,2013-08-14 16:13:00,
2013-08-14 09:23:00,74.0,42.0,-100.00,NNW,348,0.0,2.0,32,0.00,,,0.00,208.000000,,2013-08-14 16:23:00,
2013-08-14 09:25:00,78.0,41.0,-100.00,North,9,0.0,4.0,27,0.00,,,0.00,181.000000,,2013-08-14 16:25:00,
2013-08-14 10:03:00,78.0,41.0,-100.00,North,9,0.0,4.0,27,0.00,,,0.00,181.000000,,2013-08-14 17:03:00,
2013-08-14 10:20:00,78.0,41.0,-100.00,North,9,0.0,4.0,27,0.00,,,0.00,181.000000,,2013-08-14 17:20:00,
2013-08-14 10:55:00,88.0,43.0,-100.00,SSW,199,1.0,4.0,21,0.00,,,0.00,510.000000,,2013-08-14 17:55:00,
2013-08-14 11:05:00,88.0,43.0,-100.00,SSW,199,1.0,4.0,21,0.00,,,0.00,510.000000,,2013-08-14 18:05:00,
2013-08-14 11:23:00,88.0,-99.9,-100.00,SSW,199,1.0,4.0,21,0.00,,,0.00,510.000000,,2013-08-14 18:23:00,
2013-08-14 12:00:00,91.0,40.0,-100.00,WNW,296,5.0,10.0,17,0.00,,,0.00,1011.000000,,2013-08-14 19:00:00,
2013-08-14 12:12:00,91.0,40.0,-100.00,WNW,296,5.0,10.0,17,0.00,,,0.00,1011.000000,,2013-08-14 19:12:00,
2013-08-14 13:52:00,95.0,43.0,-100.00,SW,232,8.0,17.0,17,0.00,,,0.00,1223.000000,,2013-08-14 20:52:00,
2013-08-14 14:05:00,95.0,43.0,-100.00,SW,232,8.0,17.0,17,0.00,,,0.00,1223.000000,,2013-08-14 21:05:00,
2013-08-14 14:13:00,95.0,43.0,-100.00,SW,232,8.0,17.0,17,0.00,,,0.00,1223.000000,,2013-08-14 21:13:00,
2013-08-14 14:23:00,95.0,43.0,-100.00,SW,232,8.0,17.0,17,0.00,,,0.00,1223.000000,,2013-08-14 21:23:00,
2013-08-14 14:55:00,96.0,41.0,-100.00,WSW,245,7.0,17.0,15,0.00,,,0.00,1200.000000,,2013-08-14 21:55:00,
2013-08-14 15:04:00,96.0,41.0,-100.00,WSW,245,7.0,17.0,15,0.00,,,0.00,1200.000000,,2013-08-14 22:04:00,
2013-08-14 15:13:00,96.0,41.0,-100.00,WSW,245,7.0,17.0,15,0.00,,,0.00,1200.000000,,2013-08-14 22:13:00,
2013-08-14 15:23:00,96.0,41.0,-100.00,WSW,245,7.0,17.0,15,0.00,,,0.00,1200.000000,,2013-08-14 22:23:00,
2013-08-14 15:54:00,99.0,40.0,-100.00,WSW,250,7.0,18.0,13,0.00,,,0.00,1137.000000,,2013-08-14 22:54:00,
2013-08-14 16:05:00,99.0,40.0,-100.00,WSW,250,7.0,18.0,13,0.00,,,0.00,1137.000000,,2013-08-14 23:05:00,
2013-08-14 16:13:00,99.0,40.0,-100.00,WSW,250,7.0,18.0,13,0.00,,,0.00,1137.000000,,2013-08-14 23:13:00,
2013-08-14 16:24:00,99.0,40.0,-100.00,WSW,250,7.0,18.0,13,0.00,,,0.00,1137.000000,,2013-08-14 23:24:00,
2013-08-14 16:56:00,99.0,35.0,-100.00,WSW,252,6.0,17.0,11,0.00,,,0.00,995.000000,,2013-08-14 23:56:00,
2013-08-14 17:12:00,99.0,35.0,-100.00,WSW,252,6.0,17.0,11,0.00,,,0.00,995.000000,,2013-08-15 00:12:00,
2013-08-14 17:22:00,99.0,35.0,-100.00,WSW,252,6.0,17.0,11,0.00,,,0.00,995.000000,,2013-08-15 00:22:00,
2013-08-14 17:52:00,99.0,33.0,-100.00,SW,236,5.0,16.0,10,0.00,,,0.00,785.000000,,2013-08-15 00:52:00,
2013-08-14 18:01:00,99.0,33.0,-100.00,SW,236,5.0,16.0,10,0.00,,,0.00,785.000000,,2013-08-15 01:01:00,
2013-08-14 18:16:00,99.0,33.0,-100.00,SW,236,5.0,16.0,10,0.00,,,0.00,785.000000,,2013-08-15 01:16:00,
2013-08-14 18:22:00,99.0,33.0,-100.00,SW,236,5.0,16.0,10,0.00,,,0.00,785.000000,,2013-08-15 01:22:00,
2013-08-14 18:52:00,97.0,31.0,-100.00,West,261,5.0,14.0,10,-99.99,,,0.00,530.000000,,2013-08-15 01:52:00,
2013-08-14 19:01:00,97.0,31.0,-100.00,West,261,5.0,14.0,10,-99.99,,,0.00,530.000000,,2013-08-15 02:01:00,
2013-08-14 19:11:00,97.0,31.0,-100.00,West,261,5.0,14.0,10,-99.99,,,0.00,530.000000,,2013-08-15 02:11:00,
2013-08-14 19:21:00,97.0,31.0,-100.00,West,261,5.0,14.0,10,-99.99,,,0.00,530.000000,,2013-08-15 02:21:00,
2013-08-14 20:11:00,93.0,28.0,-100.00,WSW,246,5.0,11.0,10,0.00,,,0.00,262.000000,,2013-08-15 03:11:00,
2013-08-14 20:22:00,93.0,28.0,-100.00,WSW,246,5.0,11.0,10,0.00,,,0.00,262.000000,,2013-08-15 03:22:00,
2013-08-14 20:53:00,86.0,35.0,-100.00,South,177,2.0,9.0,16,0.00,,,0.00,25.000000,,2013-08-15 03:53:00,
2013-08-14 21:03:00,86.0,35.0,-100.00,South,177,2.0,9.0,16,0.00,,,0.00,25.000000,,2013-08-15 04:03:00,
2013-08-14 21:12:00,86.0,35.0,-100.00,South,177,2.0,9.0,16,0.00,,,0.00,25.000000,,2013-08-15 04:12:00,
2013-08-14 21:22:00,86.0,35.0,-100.00,South,177,2.0,9.0,16,0.00,,,0.00,25.000000,,2013-08-15 04:22:00,
2013-08-14 21:52:00,78.0,35.0,-100.00,SE,133,0.0,5.0,21,0.00,,,0.00,0.000000,,2013-08-15 04:52:00,
2013-08-14 22:02:00,78.0,35.0,-100.00,SE,133,0.0,5.0,21,0.00,,,0.00,0.000000,,2013-08-15 05:02:00,
2013-08-14 22:12:00,78.0,35.0,-100.00,SE,133,0.0,5.0,21,0.00,,,0.00,0.000000,,2013-08-15 05:12:00,
2013-08-14 22:22:00,78.0,35.0,-100.00,SE,133,0.0,5.0,21,0.00,,,0.00,0.000000,,2013-08-15 05:22:00,
2013-08-14 22:52:00,75.0,35.0,-100.00,SSE,150,0.0,4.0,23,0.00,,,0.00,0.000000,,2013-08-15 05:52:00,
2013-08-14 23:02:00,75.0,35.0,-100.00,SSE,150,0.0,4.0,23,0.00,,,0.00,0.000000,,2013-08-15 06:02:00,
2013-08-14 23:11:00,75.0,35.0,-100.00,SSE,150,0.0,4.0,23,0.00,,,0.00,0.000000,,2013-08-15 06:11:00,
2013-08-14 23:21:00,75.0,35.0,-100.00,SSE,150,0.0,4.0,23,0.00,,,0.00,0.000000,,2013-08-15 06:21:00,
2013-08-14 23:52:00,74.0,39.0,-100.00,SE,143,0.0,4.0,28,0.00,,,0.00,0.000000,,2013-08-15 06:52:00,